Wind_Speed
33 35 39 36 37 38 38 40 40 39 40 38 36 34 31 28 26 26 25 25 25 25 25 26 26 27 27 26 25 25 25 27 24 27 27 28 29 23 26 26 20 20 20 21 23 22 22
27 34 33 40 37 40 40 40 45 44 42 42 38 37 35 31 30 30 30 28 29 28 28 29 27 27 27 28 28 29 31 30 28 29 31 30 24 22 25 27 23 24 22 22 23 25 28
33 30 32 36 36 40 44 45 43 49 49 47 44 42 39 37 36 35 36 34 35 34 34 34 32 32 33 32 32 30 29 31 30 30 29 29 30 29 27 28 27 27 25 26 26 26 29
34 32 34 35 33 39 44 47 49 49 51 50 49 48 46 45 40 34 33 37 38 36 37 39 39 38 38 36 35 32 31 32 32 31 31 30 31 32 32 29 29 31 30 30 28 28 29
41 38 40 41 35 35 42 43 51 49 51 50 49 49 48 47 46 46 40 43 41 40 40 39 42 42 42 39 36 34 33 33 33 32 34 33 33 32 33 31 31 31 32 33 31 31 33
51 48 45 41 39 36 37 45 41 43 49 48 48 51 51 51 51 50 44 39 39 41 43 44 44 43 43 40 36 34 33 32 34 35 35 34 33 33 31 31 32 29 30 31 32 32 35
57 55 51 47 44 41 41 43 44 44 45 50 56 54 54 53 52 42 39 39 38 40 41 41 45 47 44 42 40 37 34 34 36 36 36 35 32 31 30 30 32 29 28 29 31 34 34
62 62 56 54 51 50 50 48 45 45 43 46 47 49 51 52 48 42 43 41 38 40 40 42 45 45 47 45 44 40 38 36 38 39 40 37 32 30 30 33 34 31 31 34 32 32 32
66 66 62 59 57 58 59 56 51 47 44 44 52 51 49 48 48 48 47 45 42 41 39 45 45 46 49 48 44 42 42 42 43 42 41 41 34 32 34 35 35 36 37 33 33 33 31
77 72 69 66 65 61 61 57 54 50 49 47 50 53 55 52 50 47 44 46 45 44 37 42 45 45 48 50 45 44 44 47 44 42 44 39 40 38 42 38 39 38 38 36 35 30 33
79 80 75 71 70 69 65 61 54 53 54 50 49 52 54 56 52 52 48 46 48 47 39 38 42 45 46 47 49 49 48 46 47 46 45 44 44 43 43 43 39 40 39 40 37 36 34
90 85 86 78 75 77 70 68 64 59 56 57 55 54 54 55 58 60 53 51 47 48 39 39 43 51 50 49 50 50 49 49 50 50 50 49 49 47 48 49 48 45 43 43 45 41 40
92 92 90 89 78 75 77 76 72 68 63 62 62 60 57 56 57 57 57 48 46 42 44 45 46 48 52 54 54 54 52 52 52 52 53 55 55 55 55 56 56 56 53 50 46 48 48
100 92 89 93 86 87 81 76 81 76 75 73 69 66 62 65 63 61 61 59 52 44 47 51 54 54 54 56 55 55 54 53 57 57 56 55 55 55 54 56 55 56 59 60 54 51 50
103 102 93 93 90 93 88 85 79 82 80 83 79 74 71 71 70 70 66 59 54 52 55 58 55 56 55 59 60 62 62 62 64 63 61 58 56 60 60 62 62 60 62 64 62 56 52
106 104 105 98 96 93 89 90 89 83 85 83 87 83 79 81 78 78 70 59 61 62 65 65 59 60 60 63 63 64 63 62 63 66 68 66 63 61 61 63 63 65 66 67 67 63 55
114 109 104 104 103 101 99 94 91 94 94 89 90 94 92 93 88 83 73 70 68 70 72 71 68 67 66 69 70 67 65 67 67 72 74 73 70 63 62 63 67 68 68 71 75 74 70
120 118 113 111 107 108 107 105 98 97 96 94 95 97 95 98 98 87 82 81 78 79 79 77 75 74 72 78 75 73 68 71 73 73 76 77 78 74 69 69 71 72 73 75 76 78 79
128 123 119 116 112 113 113 113 111 109 104 99 96 90 99 97 103 100 95 92 92 89 83 84 83 83 85 81 79 76 76 78 78 77 76 79 84 81 78 76 77 78 77 79 82 80 77
133 129 128 125 121 117 114 115 115 110 108 106 98 94 96 105 104 103 102 97 96 95 95 90 87 88 90 89 93 76 80 87 88 85 87 88 88 84 81 81 86 84 83 85 87 85 87
135 131 128 125 122 124 123 121 117 115 114 112 109 102 102 105 106 106 107 106 104 102 101 101 102 102 101 97 96 92 88 91 92 93 93 97 100 97 89 89 92 89 86 87 93 93 98
143 141 136 134 132 127 126 120 122 118 117 117 112 108 111 111 105 107 109 112 109 110 108 109 109 109 108 105 104 106 100 95 96 98 97 99 103 103 99 96 100 98 90 93 95 96 102
145 143 142 139 136 135 134 130 126 123 122 119 120 119 115 116 117 112 109 112 113 112 111 113 113 112 111 107 107 106 107 110 109 108 108 109 109 108 110 105 110 110 98 104 103 106 110
150 149 145 143 142 143 138 136 133 130 130 127 129 126 125 124 124 121 118 120 120 113 113 116 113 116 115 112 113 114 111 111 111 113 113 112 114 116 115 115 118 108 106 107 109 111 113
154 151 148 145 144 143 143 142 141 140 138 135 132 133 132 131 131 130 128 125 123 124 122 122 121 120 122 121 119 115 114 115 117 116 115 115 117 122 121 124 121 119 116 116 118 118 122
152 151 152 151 150 148 147 148 147 147 147 143 141 141 139 136 132 137 133 132 131 132 130 130 130 126 126 124 124 123 121 121 122 122 118 120 121 125 128 130 130 124 125 127 130 129 125
143 147 152 154 152 154 153 153 153 152 152 150 146 146 144 143 137 139 137 138 140 139 139 139 139 137 135 132 131 131 130 130 132 131 129 130 128 130 128 133 137 135 134 135 137 134 135
122 131 144 155 153 153 156 157 156 155 156 156 154 151 151 149 143 144 143 142 142 143 143 140 145 143 142 142 140 137 137 136 138 139 139 141 140 139 140 141 142 141 141 143 143 144 142
102 109 117 126 134 150 155 153 157 156 159 158 154 152 152 150 147 149 147 148 151 146 149 151 148 148 149 147 148 150 150 149 149 149 149 146 146 149 148 147 149 149 148 148 149 149 148
Wind_Direction
257 252 255 252 246 243 244 243 242 248 249 252 254 259 262 265 266 270 274 281 281 285 290 292 290 290 290 290 295 295 299 307 318 321 318 318 321 312 320 310 310 319 311 312 304 296 299
254 258 258 253 255 244 244 247 246 243 247 251 255 260 264 266 268 271 274 278 286 288 292 292 292 290 290 290 292 295 300 305 309 313 316 315 319 313 314 321 305 312 309 305 307 301 293
245 252 260 263 259 251 247 248 249 248 246 248 253 260 262 267 269 272 274 281 282 286 291 292 292 292 294 290 292 293 297 299 305 308 309 312 318 314 314 310 305 305 301 302 305 304 299
245 248 253 254 268 266 252 250 249 250 251 249 254 257 259 266 269 274 279 282 283 287 289 290 289 290 291 290 290 292 297 299 302 306 309 309 309 309 313 311 310 303 298 301 301 302 303
238 246 253 250 255 264 265 254 251 252 254 256 258 258 259 263 267 269 274 276 280 284 285 286 288 289 287 286 285 285 290 295 298 302 305 311 310 308 304 306 308 307 301 300 302 303 303
233 237 242 244 254 257 267 266 259 260 258 256 260 260 261 262 264 268 274 280 284 288 289 288 285 284 286 283 279 283 285 291 297 298 300 304 309 309 308 301 303 301 299 295 296 296 294
238 231 234 236 239 247 255 261 261 264 267 257 258 260 260 261 265 269 274 275 278 285 289 290 284 283 284 282 282 280 282 287 288 297 296 300 303 307 311 312 311 298 296 295 291 291 294
239 235 230 233 235 245 248 249 248 256 266 266 267 269 273 270 268 266 268 270 277 280 285 288 287 283 281 278 279 276 277 285 294 289 290 292 294 301 303 303 303 305 302 306 292 292 293
244 237 232 234 236 244 248 242 247 251 261 263 265 264 266 267 266 268 271 270 272 276 283 284 281 280 278 281 276 271 279 283 287 286 285 288 288 292 293 296 300 301 307 302 295 294 295
245 245 235 234 234 235 239 240 240 256 259 263 263 264 266 265 266 267 270 268 269 271 277 285 285 281 277 276 273 273 280 283 284 284 284 284 287 288 292 292 295 296 298 292 292 287 295
243 246 240 246 237 236 237 235 239 249 258 253 261 259 263 263 263 266 266 270 270 268 268 285 283 284 280 272 268 272 279 282 284 282 281 279 282 285 289 290 286 288 292 287 289 289 285
250 248 245 244 244 250 241 238 237 239 243 251 258 261 261 260 262 261 266 272 271 268 271 278 285 280 277 274 275 275 278 282 284 284 280 277 278 280 284 289 287 288 288 281 286 284 293
245 249 248 251 246 252 254 243 241 241 242 246 248 252 255 255 259 260 264 269 272 271 277 270 272 275 274 277 280 282 284 287 289 288 288 283 278 277 283 286 286 289 289 288 285 286 291
244 248 246 245 244 253 259 254 243 243 245 244 246 251 249 250 255 256 258 260 275 276 269 272 268 266 268 271 274 278 281 284 284 286 287 286 287 285 285 290 289 291 292 288 287 287 288
244 244 247 242 246 254 256 255 252 250 254 255 248 248 251 249 252 256 256 269 271 265 262 261 265 269 271 273 275 278 277 280 281 282 284 282 286 283 284 287 285 289 289 288 286 285 284
245 244 244 246 246 246 249 253 254 251 256 261 256 250 250 252 252 251 253 264 271 259 257 258 261 262 266 271 277 278 276 276 278 281 281 281 280 281 283 286 287 286 288 288 286 283 281
248 247 245 247 248 247 249 248 250 255 257 258 262 261 257 252 252 251 255 255 254 254 256 257 257 260 264 267 270 274 279 279 278 279 278 280 278 279 281 284 285 287 289 286 284 287 287
248 248 249 251 248 250 251 250 247 251 255 257 260 262 258 260 257 255 257 254 252 255 258 257 259 260 260 261 264 269 278 278 273 276 280 283 282 281 280 283 285 287 284 284 286 287 284
248 247 248 250 250 251 249 251 252 253 256 256 260 263 259 260 258 258 259 257 256 254 256 258 259 260 262 262 262 267 270 270 269 273 276 279 281 281 284 285 282 281 284 286 287 288 296
245 245 247 249 251 251 251 249 250 252 255 255 255 256 263 262 261 260 260 258 258 259 261 260 259 261 263 264 269 263 268 268 269 269 275 273 275 280 282 279 280 284 285 285 285 286 291
244 245 247 248 248 252 251 250 250 252 254 255 256 256 258 262 264 265 261 261 259 258 259 260 261 260 261 265 267 267 265 267 270 270 273 273 275 280 279 276 277 280 281 284 286 287 286
246 246 246 246 249 249 251 251 251 252 253 254 256 258 258 262 263 265 265 262 261 262 261 261 262 263 265 266 266 268 266 267 270 272 271 273 276 277 276 277 278 278 279 288 287 288 287
246 247 247 249 248 248 249 249 251 252 251 252 255 258 258 258 262 261 263 261 264 264 263 264 262 263 264 264 266 267 269 269 267 274 270 272 275 277 274 273 276 278 281 283 285 288 288
246 246 246 246 248 249 247 249 250 250 253 254 256 257 258 259 260 262 264 266 266 262 265 265 265 267 265 266 266 271 268 271 274 275 275 275 277 278 277 277 275 279 281 282 282 285 286
244 246 247 248 247 247 248 249 249 250 252 253 254 256 258 259 259 260 260 260 262 265 266 266 266 265 266 267 267 268 269 271 274 275 276 276 277 276 277 279 277 280 281 283 281 283 287
242 245 247 247 248 249 249 250 250 251 251 253 254 256 255 257 259 259 259 259 261 264 265 266 267 266 267 268 269 271 270 272 273 274 276 276 276 278 280 280 279 281 282 282 282 284 285
242 243 244 246 245 248 249 250 251 253 254 254 254 256 256 257 258 258 259 260 261 261 262 263 265 267 268 268 270 271 272 273 274 275 274 276 276 276 276 278 280 283 281 281 283 284 283
242 243 243 243 245 247 248 249 251 252 253 253 253 255 256 257 256 257 259 259 260 260 262 265 264 264 266 267 268 268 270 270 272 274 275 275 275 275 276 277 278 279 279 280 281 282 283
242 243 243 243 245 246 248 248 250 253 253 253 252 252 254 256 255 256 257 258 256 258 259 261 263 264 265 266 268 267 267 269 269 270 272 273 273 274 274 274 275 276 277 278 279 280 280
Height
10791 10791 10794 10795 10797 10799 10801 10803 10805 10807 10809 10810 10811 10813 10813 10814 10815 10815 10815 10816 10816 10815 10815 10815 10815 10814 10814 10813 10811 10810 10808 10806 10804 10803 10801 10799 10797 10796 10794 10792 10792 10790 10789 10787 10786 10785 10783
10782 10784 10785 10787 10789 10791 10793 10795 10797 10798 10800 10803 10804 10806 10807 10807 10809 10810 10810 10810 10810 10810 10810 10810 10810 10809 10808 10808 10806 10804 10803 10801 10799 10798 10797 10795 10794 10792 10790 10789 10787 10786 10785 10784 10782 10781 10779
10772 10774 10777 10780 10780 10783 10786 10787 10789 10790 10791 10794 10796 10799 10800 10800 10801 10802 10803 10804 10804 10804 10804 10803 10803 10803 10802 10801 10800 10799 10798 10796 10794 10793 10792 10790 10789 10788 10786 10784 10783 10781 10779 10778 10777 10776 10774
10762 10764 10767 10770 10773 10774 10776 10778 10780 10782 10783 10785 10787 10788 10790 10793 10794 10794 10796 10796 10797 10797 10797 10796 10796 10796 10795 10794 10793 10792 10791 10790 10788 10787 10786 10784 10783 10782 10780 10778 10776 10775 10773 10772 10771 10770 10769
10751 10753 10756 10759 10762 10765 10767 10769 10772 10774 10776 10777 10778 10780 10781 10783 10785 10786 10787 10788 10789 10789 10790 10789 10788 10788 10787 10787 10785 10785 10784 10783 10782 10781 10780 10778 10777 10776 10774 10773 10771 10769 10767 10766 10764 10764 10762
10737 10740 10745 10747 10750 10753 10756 10759 10761 10764 10765 10767 10769 10770 10772 10773 10775 10776 10778 10780 10780 10781 10781 10781 10780 10779 10778 10777 10777 10777 10776 10776 10775 10774 10773 10772 10770 10768 10767 10766 10765 10763 10762 10759 10757 10756 10756
10725 10727 10730 10734 10737 10741 10744 10747 10750 10753 10755 10757 10759 10760 10760 10762 10765 10767 10769 10771 10772 10772 10772 10771 10770 10769 10768 10768 10768 10768 10768 10768 10768 10767 10766 10765 10763 10762 10760 10759 10758 10756 10755 10753 10751 10749 10748
10713 10714 10716 10720 10723 10727 10731 10734 10736 10740 10744 10747 10748 10750 10750 10752 10754 10756 10759 10761 10763 10763 10762 10762 10759 10758 10757 10758 10758 10758 10759 10759 10759 10758 10758 10757 10755 10754 10753 10752 10751 10749 10748 10747 10744 10743 10742
10698 10701 10704 10706 10709 10713 10716 10719 10723 10726 10731 10734 10736 10738 10739 10741 10743 10745 10749 10752 10754 10755 10754 10749 10752 10749 10747 10748 10749 10749 10749 10750 10749 10749 10749 10748 10747 10744 10744 10743 10743 10742 10740 10739 10737 10735 10735
10681 10687 10690 10692 10695 10699 10703 10706 10709 10714 10716 10718 10721 10724 10725 10729 10731 10734 10738 10741 10744 10745 10748 10742 10740 10739 10738 10738 10738 10740 10740 10740 10739 10739 10739 10738 10737 10736 10735 10733 10733 10731 10731 10730 10729 10727 10726
10667 10671 10673 10679 10682 10685 10689 10693 10696 10698 10702 10705 10707 10711 10712 10715 10718 10722 10726 10729 10732 10734 10741 10734 10730 10727 10726 10727 10728 10728 10730 10730 10730 10728 10730 10729 10727 10726 10724 10724 10724 10722 10722 10722 10720 10719 10717
10644 10651 10656 10662 10667 10670 10674 10679 10681 10683 10686 10689 10692 10697 10699 10701 10704 10708 10714 10717 10721 10723 10728 10725 10721 10717 10715 10714 10716 10718 10718 10719 10719 10718 10718 10718 10717 10716 10714 10713 10712 10712 10711 10710 10710 10709 10709
10622 10629 10636 10643 10648 10653 10659 10663 10667 10670 10671 10672 10675 10680 10683 10686 10687 10693 10700 10704 10710 10714 10715 10714 10710 10708 10705 10703 10704 10707 10708 10707 10707 10707 10707 10707 10706 10705 10703 10701 10699 10697 10698 10697 10698 10696 10697
10599 10607 10616 10621 10627 10632 10641 10647 10650 10653 10656 10658 10660 10663 10668 10666 10670 10675 10681 10688 10698 10702 10698 10696 10695 10695 10695 10693 10693 10694 10697 10696 10693 10694 10695 10695 10695 10692 10692 10688 10687 10685 10683 10680 10683 10684 10684
10572 10583 10592 10599 10606 10611 10618 10628 10633 10637 10638 10643 10644 10648 10653 10647 10652 10657 10664 10677 10686 10683 10680 10676 10678 10682 10681 10678 10680 10680 10683 10684 10679 10678 10679 10680 10684 10679 10679 10679 10675 10674 10670 10664 10663 10665 10670
10545 10556 10567 10576 10583 10589 10596 10602 10611 10616 10621 10624 10627 10630 10637 10631 10635 10638 10649 10665 10667 10663 10658 10659 10664 10664 10666 10661 10665 10668 10669 10672 10665 10660 10660 10665 10667 10669 10667 10665 10661 10655 10655 10652 10646 10644 10649
10519 10530 10541 10550 10560 10566 10572 10580 10588 10594 10600 10604 10605 10610 10621 10610 10615 10622 10639 10644 10644 10642 10640 10641 10645 10647 10649 10647 10646 10649 10656 10656 10653 10645 10641 10643 10646 10655 10655 10652 10645 10643 10641 10633 10626 10628 10624
10494 10503 10512 10523 10531 10542 10548 10555 10562 10570 10575 10580 10583 10589 10597 10589 10594 10610 10622 10620 10625 10623 10621 10625 10627 10630 10630 10625 10628 10631 10637 10634 10633 10629 10626 10625 10626 10634 10637 10636 10633 10629 10624 10617 10614 10613 10612
10462 10474 10485 10493 10503 10513 10522 10530 10536 10543 10551 10556 10562 10565 10572 10573 10569 10586 10595 10598 10598 10602 10604 10606 10605 10607 10603 10609 10609 10614 10617 10612 10613 10610 10612 10605 10599 10609 10619 10619 10612 10608 10608 10601 10595 10594 10604
10428 10441 10453 10464 10473 10483 10491 10501 10509 10517 10524 10533 10539 10545 10547 10548 10552 10559 10561 10570 10574 10582 10580 10585 10589 10584 10583 10589 10584 10604 10603 10589 10586 10592 10593 10581 10577 10591 10597 10593 10585 10590 10593 10586 10576 10579 10576
10399 10412 10423 10433 10442 10451 10461 10470 10481 10489 10498 10505 10513 10518 10524 10527 10528 10531 10537 10543 10549 10551 10556 10561 10560 10563 10563 10566 10565 10569 10575 10574 10569 10568 10569 10561 10555 10561 10576 10575 10557 10566 10570 10567 10563 10566 10548
10364 10377 10391 10401 10414 10421 10430 10438 10448 10461 10469 10477 10482 10491 10496 10504 10505 10506 10508 10514 10521 10524 10529 10532 10533 10536 10538 10540 10543 10545 10550 10550 10547 10548 10544 10540 10536 10536 10539 10546 10536 10537 10549 10547 10541 10538 10531
10333 10345 10357 10369 10380 10392 10400 10408 10417 10427 10440 10443 10450 10459 10468 10476 10480 10484 10485 10487 10492 10494 10499 10502 10504 10507 10509 10509 10512 10515 10519 10523 10526 10527 10524 10519 10516 10511 10507 10519 10508 10506 10537 10523 10516 10514 10506
10296 10310 10324 10337 10347 10357 10367 10376 10386 10393 10406 10416 10419 10428 10435 10447 10451 10455 10459 10462 10464 10465 10468 10472 10473 10476 10479 10480 10481 10484 10487 10490 10494 10498 10497 10498 10493 10483 10478 10482 10473 10496 10498 10500 10492 10489 10482
10260 10274 10287 10302 10314 10325 10335 10345 10353 10360 10370 10383 10388 10396 10401 10412 10419 10426 10429 10436 10436 10435 10438 10441 10442 10445 10447 10449 10450 10453 10456 10460 10463 10467 10466 10467 10461 10455 10448 10448 10449 10465 10470 10462 10457 10465 10462
10225 10238 10252 10266 10278 10291 10300 10306 10318 10328 10336 10345 10358 10360 10367 10376 10393 10388 10397 10402 10405 10407 10410 10411 10410 10414 10415 10416 10417 10418 10424 10427 10432 10438 10441 10435 10431 10422 10416 10413 10414 10432 10436 10422 10418 10432 10438
10190 10202 10215 10228 10243 10252 10260 10271 10281 10291 10300 10307 10323 10327 10333 10344 10366 10358 10362 10363 10370 10375 10379 10379 10379 10383 10383 10386 10385 10387 10391 10394 10396 10405 10414 10408 10401 10398 10395 10380 10374 10389 10392 10384 10384 10397 10385
10157 10166 10177 10190 10205 10215 10222 10231 10241 10252 10262 10270 10282 10292 10293 10311 10328 10326 10328 10336 10340 10340 10340 10346 10347 10351 10354 10358 10356 10359 10359 10359 10363 10365 10376 10377 10371 10374 10369 10364 10359 10360 10359 10352 10350 10348 10349
10131 10138 10147 10158 10165 10182 10189 10194 10206 10212 10222 10227 10243 10254 10257 10267 10289 10287 10301 10301 10299 10309 10310 10308 10311 10315 10320 10319 10321 10326 10325 10328 10332 10334 10334 10340 10338 10336 10341 10341 10333 10325 10325 10326 10320 10315 10314